1998-067MX

Last updated on Fri Aug 04 2017 00:15:03 GMT+0000 (Coordinated Universal Time)

1 42823U 98067MX 17215.21846590 .00007746 00000-0 11900-3 0 9998 2 42823 51.6391 163.7096 0008005 81.6097 278.5801 15.55287443 4179
UTC large
Height (km)
Speed (km/s)
/
Latitude / Longitude
Inclination (degrees)
Orbital Period (minutes)
Azimuth
Elevation
Range (km)
Doppler Factor

Next 0 passes for location: London (51.5072 / 0.1276)

Sorry there are no passes over London.
1998-067MX